Terminal Aerodrome Forecast
Issued by NWS

Home | Current Version | Previous Version | Text Only | Print | Product List | Glossary On
Versions: 1 2 3 4 5 6 7 8 9 10 11 12 13 14 15 16 17 18 19 20 21 22 23 24 25 26 27 28 29 30 31 32 33 34 35 36 37 38 39 40 41 42 43 44 45 46 47 48 49 50
000
FTAK31 PANC 202205 AAB
TAFAHO
TAF AMD
PAHO 202205Z 2022/2118 22015KT 3SM -SHSN OVC030
      TEMPO 2022/2102 1SM -SHSN OVC015
     FM210200 24010KT 6SM -SHSN OVC035
      TEMPO 2102/2106 3SM -SN BR OVC025
     FM210600 28011KT P6SM VCSH BKN045
     FM211500 32005KT P6SM FEW050=

USA.gov is the U.S. government's official web portal to all federal, state and local government web resources and services.